| time (UTC) | temp F | wind direction | speed MPH | gust MPH | rain 1hr in | rain 24hr in | rain mn in | humidity % | barometer mb |
| 20260510151529 | 61 | 0 | 1.0 | 8.0 | 0.00 | 0.00 | 0.00 | 43 | 1021.8 |
| 20260510150029 | 60 | 0 | 0.0 | 7.0 | 0.00 | 0.00 | 0.00 | 48 | 1021.8 |
| 20260510144534 | 59 | 0 | 1.0 | 6.0 | 0.00 | 0.00 | 0.00 | 47 | 1022.0 |
| 20260510143032 | 58 | 37 | 1.0 | 7.0 | 0.00 | 0.00 | 0.00 | 47 | 1022.1 |
| 20260510141536 | 57 | 0 | 0.0 | 4.0 | 0.00 | 0.00 | 0.00 | 50 | 1022.0 |
| 20260510140030 | 57 | 34 | 1.0 | 5.0 | 0.00 | 0.00 | 0.00 | 48 | 1022.0 |
| 20260510134532 | 57 | 39 | 0.0 | 7.0 | 0.00 | 0.00 | 0.00 | 49 | 1021.7 |
| 20260510133029 | 55 | 0 | 1.0 | 5.0 | 0.00 | 0.00 | 0.00 | 51 | 1021.4 |
| 20260510131535 | 55 | 48 | 0.0 | 4.0 | 0.00 | 0.00 | 0.00 | 52 | 1021.3 |
| 20260510130030 | 55 | 0 | 0.0 | 7.0 | 0.00 | 0.00 | 0.00 | 51 | 1021.1 |
| 20260510124532 | 55 | 61 | 1.0 | 5.0 | 0.00 | 0.00 | 0.00 | 49 | 1020.8 |
| 20260510123031 | 55 | 22 | 1.0 | 9.0 | 0.00 | 0.00 | 0.00 | 51 | 1020.5 |
| 20260510121533 | 54 | 32 | 2.0 | 8.0 | 0.00 | 0.00 | 0.00 | 50 | 1020.3 |
| 20260510120031 | 54 | 24 | 1.0 | 8.0 | 0.00 | 0.00 | 0.00 | 50 | 1019.6 |
| 20260510114541 | 55 | 47 | 2.0 | 8.0 | 0.00 | 0.00 | 0.00 | 49 | 1019.1 |
| 20260510113040 | 55 | 37 | 2.0 | 9.0 | 0.00 | 0.00 | 0.00 | 47 | 1019.1 |
| 20260510111533 | 55 | 5 | 4.0 | 9.0 | 0.00 | 0.00 | 0.00 | 47 | 1019.0 |
| 20260510110036 | 55 | 61 | 2.0 | 9.0 | 0.00 | 0.00 | 0.00 | 49 | 1018.9 |
| 20260510104532 | 55 | 75 | 1.0 | 8.0 | 0.00 | 0.00 | 0.00 | 50 | 1018.7 |
| 20260510103028 | 56 | 37 | 2.0 | 6.0 | 0.00 | 0.00 | 0.00 | 51 | 1018.7 |
| 20260510101530 | 56 | 44 | 2.0 | 6.0 | 0.00 | 0.00 | 0.00 | 52 | 1018.4 |
| 20260510100047 | 56 | 0 | 1.0 | 9.0 | 0.00 | 0.00 | 0.00 | 50 | 1018.1 |
| 20260510094536 | 56 | 59 | 1.0 | 4.0 | 0.00 | 0.00 | 0.00 | 51 | 1017.8 |
| 20260510093032 | 57 | 30 | 0.0 | 8.0 | 0.00 | 0.00 | 0.00 | 51 | 1017.6 |
| 20260510091532 | 57 | 51 | 2.0 | 6.0 | 0.00 | 0.00 | 0.00 | 52 | 1017.7 |
| 20260510090028 | 58 | 37 | 1.0 | 6.0 | 0.00 | 0.00 | 0.00 | 52 | 1017.2 |
| 20260510084532 | 59 | 65 | 1.0 | 5.0 | 0.00 | 0.00 | 0.00 | 53 | 1016.9 |
| 20260510083030 | 59 | 42 | 2.0 | 5.0 | 0.00 | 0.00 | 0.00 | 53 | 1017.2 |
| 20260510081532 | 59 | 90 | 2.0 | 7.0 | 0.00 | 0.00 | 0.00 | 54 | 1017.0 |
| 20260510080030 | 59 | 0 | 1.0 | 6.0 | 0.00 | 0.00 | 0.00 | 56 | 1016.5 |
| 20260510074537 | 59 | 67 | 2.0 | 6.0 | 0.00 | 0.00 | 0.00 | 60 | 1016.3 |
| 20260510073031 | 59 | 0 | 1.0 | 4.0 | 0.00 | 0.00 | 0.00 | 62 | 1016.2 |
| 20260510071532 | 59 | 19 | 1.0 | 7.0 | 0.00 | 0.00 | 0.00 | 65 | 1016.2 |
| 20260510070034 | 59 | 0 | 0.0 | 3.0 | 0.00 | 0.00 | 0.00 | 65 | 1015.9 |
| 20260510064529 | 60 | 0 | 0.0 | 4.0 | 0.00 | 0.01 | 0.00 | 63 | 1015.6 |
| 20260510063030 | 61 | 0 | 0.0 | 1.0 | 0.00 | 0.01 | 0.00 | 64 | 1015.6 |
| 20260510061531 | 62 | 0 | 0.0 | 1.0 | 0.00 | 0.01 | 0.00 | 64 | 1015.7 |
| 20260510060033 | 62 | 0 | 0.0 | 0.0 | 0.00 | 0.01 | 0.00 | 63 | 1015.7 |
| 20260510054532 | 63 | 0 | 0.0 | 2.0 | 0.00 | 0.01 | 0.00 | 60 | 1015.1 |
| 20260510053032 | 63 | 0 | 0.0 | 3.0 | 0.00 | 0.01 | 0.00 | 60 | 1014.6 |
| 20260510051535 | 64 | 0 | 0.0 | 3.0 | 0.00 | 0.01 | 0.00 | 61 | 1014.4 |
| 20260510050029 | 64 | 0 | 0.0 | 2.0 | 0.00 | 0.01 | 0.00 | 60 | 1014.0 |
| 20260510044532 | 66 | 0 | 0.0 | 5.0 | 0.00 | 0.01 | 0.01 | 57 | 1014.0 |
| 20260510043030 | 66 | 0 | 1.0 | 6.0 | 0.00 | 0.01 | 0.01 | 54 | 1013.7 |
| 20260510041542 | 67 | 0 | 1.0 | 10.0 | 0.00 | 0.01 | 0.01 | 52 | 1013.5 |
| 20260510040033 | 67 | 0 | 1.0 | 6.0 | 0.00 | 0.01 | 0.01 | 52 | 1013.2 |
| 20260510034534 | 67 | 47 | 2.0 | 9.0 | 0.00 | 0.01 | 0.01 | 51 | 1012.8 |
| 20260510033031 | 68 | 29 | 2.0 | 9.0 | 0.00 | 0.01 | 0.01 | 52 | 1012.4 |
| 20260510031533 | 68 | 49 | 3.0 | 9.0 | 0.00 | 0.01 | 0.01 | 53 | 1012.2 |
| 20260510030031 | 67 | 49 | 1.0 | 3.0 | 0.00 | 0.01 | 0.01 | 57 | 1012.3 |
| 20260510024531 | 66 | 0 | 0.0 | 3.0 | 0.00 | 0.01 | 0.01 | 58 | 1012.5 |
| 20260510023028 | 68 | 0 | 0.0 | 0.0 | 0.00 | 0.01 | 0.01 | 57 | 1011.8 |
| 20260510021535 | 69 | 0 | 0.0 | 0.0 | 0.00 | 0.01 | 0.01 | 53 | 1011.1 |
| 20260510020033 | 70 | 0 | 0.0 | 1.0 | 0.00 | 0.01 | 0.01 | 52 | 1010.7 |
| 20260510014532 | 71 | 61 | 0.0 | 5.0 | 0.00 | 0.01 | 0.01 | 48 | 1010.4 |
| 20260510013037 | 71 | 0 | 1.0 | 9.0 | 0.00 | 0.01 | 0.01 | 47 | 1010.3 |
| 20260510011530 | 71 | 52 | 1.0 | 10.0 | 0.00 | 0.01 | 0.01 | 47 | 1010.2 |
| 20260510010030 | 72 | 34 | 2.0 | 11.0 | 0.00 | 0.01 | 0.01 | 46 | 1010.0 |
| 20260510004529 | 73 | 41 | 0.0 | 6.0 | 0.00 | 0.01 | 0.01 | 48 | 1009.7 |
| 20260510003033 | 74 | 0 | 0.0 | 4.0 | 0.00 | 0.01 | 0.01 | 48 | 1009.5 |
| 20260510001538 | 74 | 0 | 0.0 | 3.0 | 0.00 | 0.01 | 0.01 | 46 | 1009.4 |
| 20260510000031 | 75 | 49 | 0.0 | 10.0 | 0.00 | 0.01 | 0.01 | 46 | 1009.2 |
| 20260509234530 | 75 | 5 | 2.0 | 10.0 | 0.00 | 0.01 | 0.01 | 44 | 1009.1 |
| 20260509233028 | 75 | 56 | 1.0 | 6.0 | 0.00 | 0.01 | 0.01 | 45 | 1008.8 |
| 20260509231528 | 76 | 0 | 1.0 | 6.0 | 0.00 | 0.01 | 0.01 | 44 | 1008.7 |
| 20260509230029 | 77 | 40 | 2.0 | 11.0 | 0.00 | 0.01 | 0.01 | 41 | 1008.6 |
| 20260509224529 | 78 | 58 | 1.0 | 9.0 | 0.00 | 0.01 | 0.01 | 39 | 1008.6 |
| 20260509223031 | 80 | 299 | 1.0 | 11.0 | 0.00 | 0.01 | 0.01 | 35 | 1008.1 |
| 20260509221530 | 81 | 350 | 4.0 | 18.0 | 0.00 | 0.01 | 0.01 | 30 | 1007.8 |
| 20260509220028 | 81 | 288 | 2.0 | 8.0 | 0.00 | 0.01 | 0.01 | 33 | 1007.5 |
| 20260509214536 | 82 | 306 | 1.0 | 12.0 | 0.00 | 0.06 | 0.01 | 31 | 1007.4 |
| 20260509213030 | 83 | 277 | 1.0 | 11.0 | 0.00 | 0.06 | 0.01 | 29 | 1007.4 |
| 20260509211532 | 85 | 267 | 4.0 | 15.0 | 0.00 | 0.06 | 0.01 | 29 | 1007.4 |
| 20260509210033 | 84 | 283 | 4.0 | 16.0 | 0.00 | 0.06 | 0.01 | 30 | 1007.5 |
| 20260509204541 | 83 | 281 | 6.0 | 14.0 | 0.00 | 0.08 | 0.01 | 27 | 1007.8 |
| 20260509203036 | 82 | 321 | 3.0 | 11.0 | 0.00 | 0.08 | 0.01 | 33 | 1007.7 |
| 20260509201531 | 83 | 258 | 4.0 | 14.0 | 0.00 | 0.08 | 0.01 | 32 | 1007.9 |
| 20260509200037 | 83 | 277 | 4.0 | 15.0 | 0.00 | 0.08 | 0.01 | 33 | 1008.0 |
| 20260509194538 | 82 | 269 | 3.0 | 18.0 | 0.00 | 0.08 | 0.01 | 34 | 1008.2 |
| 20260509193037 | 82 | 269 | 4.0 | 14.0 | 0.00 | 0.08 | 0.01 | 35 | 1008.4 |
| 20260509191532 | 82 | 279 | 4.0 | 16.0 | 0.00 | 0.08 | 0.01 | 36 | 1008.5 |
| 20260509190030 | 81 | 266 | 5.0 | 12.0 | 0.00 | 0.08 | 0.01 | 36 | 1008.6 |
| 20260509184536 | 81 | 297 | 5.0 | 11.0 | 0.00 | 0.08 | 0.01 | 37 | 1008.8 |
| 20260509183032 | 80 | 272 | 4.0 | 12.0 | 0.00 | 0.08 | 0.01 | 37 | 1008.7 |
| 20260509181530 | 79 | 306 | 6.0 | 12.0 | 0.00 | 0.08 | 0.01 | 40 | 1008.9 |
| 20260509180032 | 79 | 271 | 2.0 | 12.0 | 0.00 | 0.08 | 0.01 | 43 | 1009.0 |
| 20260509174532 | 78 | 30 | 3.0 | 10.0 | 0.00 | 0.08 | 0.01 | 43 | 1009.2 |
| 20260509173030 | 77 | 249 | 4.0 | 14.0 | 0.00 | 0.08 | 0.01 | 48 | 1009.4 |
| 20260509171536 | 76 | 283 | 2.0 | 9.0 | 0.00 | 0.08 | 0.01 | 48 | 1009.6 |
| 20260509170030 | 75 | 261 | 3.0 | 13.0 | 0.00 | 0.08 | 0.01 | 51 | 1009.6 |
| 20260509164534 | 74 | 340 | 3.0 | 11.0 | 0.00 | 0.08 | 0.01 | 49 | 1009.6 |
| 20260509163031 | 73 | 250 | 3.0 | 9.0 | 0.00 | 0.08 | 0.01 | 52 | 1009.7 |
| 20260509161532 | 72 | 278 | 2.0 | 10.0 | 0.00 | 0.08 | 0.01 | 55 | 1009.6 |
| 20260509160030 | 71 | 296 | 1.0 | 9.0 | 0.00 | 0.08 | 0.01 | 56 | 1009.6 |
| 20260509154534 | 69 | 299 | 3.0 | 8.0 | 0.00 | 0.08 | 0.01 | 57 | 1009.7 |
| 20260509153033 | 68 | 246 | 1.0 | 7.0 | 0.00 | 0.08 | 0.01 | 59 | 1009.7 |